Location: Crabtree
(36.2040°N, 82.1040°W)
Time: 14:28:25
(UTC+00:00)

BlueWalker 3 - Pass Details

Date: 30 September 2023
Orbit: 490 x 503 km, 53.2° (Epoch: 06 December)

Event Time Altitude Azimuth Distance (km) Brightness Sun altitude
Exits shadow 08:26:33 - 24° (NNE) 2,011 5.5 -35.3°
Enters shadow 09:28:53 -64° 281° (WNW) 12,013 8.9 -23.6°
Maximum altitude 10:05:11 19° 31° (NNE) 1,225 4.4 -16.4°
